Location: Forst
(46.9333°N, 15.4333°E)
Time: 20:55:34
(UTC+00:00)

X-37B - Pass Details

Date: 01 December 2020
Orbit: 383 x 391 km, 45.0° (Epoch: 26 January)

Event Time Altitude Azimuth Distance (km) Brightness Sun altitude
Rises 17:20:29 0° 257° (WSW) 2,260 6.0 -21.3°
Reaches altitude 10° 17:22:34 10° 253° (WSW) 1,408 4.5 -21.7°
Enters shadow 17:24:59 44° 226° (SW) 548 1.6 -22.1°
